CXBCK SUPE-SUAA

Flight info

Callsign CXBCK
Flight time 1h 10m
Altitude 1500
Route DCT
Aircraft C172/L-SFG/C

Departure

Time 2026-05-01 13:22
Airport El Jagüel / Punta del Este Airport (SUPE)

Arrival

Time 2026-05-01 14:32
Airport Ángel S. Adami International Airport (SUAA)
Time Latitude Longitude Altitude Speed Heading
2026-05-01 13:14 -34.91381 -54.91866 58 ft 0 kts 92°
2026-05-01 13:19 -34.91356 -54.91834 48 ft 3 kts 321°
2026-05-01 13:20 -34.91355 -54.91854 48 ft 6 kts 248°
2026-05-01 13:20 -34.91362 -54.91925 55 ft 10 kts 274°
2026-05-01 13:20 -34.91354 -54.92014 58 ft 11 kts 279°
2026-05-01 13:21 -34.91213 -54.92039 53 ft 43 kts
2026-05-01 13:21 -34.90808 -54.92016 133 ft 67 kts
2026-05-01 13:21 -34.90353 -54.91960 365 ft 66 kts
2026-05-01 13:21 -34.89916 -54.91732 520 ft 72 kts 45°
2026-05-01 13:22 -34.89794 -54.91126 656 ft 80 kts 88°
2026-05-01 13:22 -34.90086 -54.90494 773 ft 95 kts 130°
2026-05-01 13:22 -34.90702 -54.90124 933 ft 101 kts 166°
2026-05-01 13:22 -34.91421 -54.90066 1037 ft 111 kts 173°
2026-05-01 13:23 -34.92270 -54.89976 1033 ft 128 kts 172°
2026-05-01 13:23 -34.93149 -54.89937 1137 ft 124 kts 189°
2026-05-01 13:23 -34.93942 -54.90271 1249 ft 121 kts 216°
2026-05-01 13:23 -34.94621 -54.90837 1370 ft 114 kts 225°
2026-05-01 13:24 -34.95247 -54.91404 1469 ft 111 kts 233°
2026-05-01 13:24 -34.95861 -54.92032 1477 ft 119 kts 232°
2026-05-01 13:24 -34.96467 -54.92721 1482 ft 114 kts 253°
2026-05-01 13:25 -34.96286 -54.94163 1491 ft 84 kts 323°
2026-05-01 13:25 -34.95865 -54.94725 1484 ft 94 kts 321°
2026-05-01 13:25 -34.95423 -54.95299 1483 ft 90 kts 321°
2026-05-01 13:25 -34.95013 -54.95797 1475 ft 79 kts 330°
2026-05-01 13:26 -34.94570 -54.96138 1472 ft 72 kts 335°
2026-05-01 13:26 -34.94128 -54.96387 1467 ft 68 kts 339°
2026-05-01 13:26 -34.93703 -54.96638 1475 ft 70 kts 333°
2026-05-01 13:26 -34.93301 -54.97000 1474 ft 73 kts 330°
2026-05-01 13:27 -34.92913 -54.97417 1469 ft 76 kts 320°
2026-05-01 13:27 -34.92624 -54.97980 1475 ft 82 kts 303°
2026-05-01 13:27 -34.92313 -54.99360 1484 ft 86 kts 299°
2026-05-01 13:28 -34.91971 -55.00810 1478 ft 91 kts 299°
2026-05-01 13:28 -34.91793 -55.01552 1482 ft 91 kts 300°
2026-05-01 13:29 -34.91469 -55.03024 1480 ft 89 kts 299°
2026-05-01 13:29 -34.91064 -55.04377 1484 ft 84 kts 308°
2026-05-01 13:30 -34.89794 -55.06701 1348 ft 79 kts 324°
2026-05-01 13:31 -34.89154 -55.07780 1131 ft 72 kts 305°
2026-05-01 13:31 -34.88287 -55.09236 790 ft 77 kts 338°
2026-05-01 13:32 -34.87407 -55.09334 470 ft 67 kts 357°
2026-05-01 13:33 -34.86162 -55.09382 100 ft 51 kts
2026-05-01 13:33 -34.85464 -55.09406 190 ft 67 kts
2026-05-01 13:34 -34.84438 -55.09701 812 ft 70 kts 307°
2026-05-01 13:34 -34.84646 -55.10733 1215 ft 87 kts 234°
2026-05-01 13:35 -34.85845 -55.11630 1468 ft 115 kts 224°
2026-05-01 13:35 -34.86552 -55.12215 1492 ft 129 kts 224°
2026-05-01 13:35 -34.87943 -55.13517 1499 ft 120 kts 242°
2026-05-01 13:36 -34.88451 -55.14296 1494 ft 119 kts 246°
2026-05-01 13:36 -34.88954 -55.15095 1491 ft 118 kts 250°
2026-05-01 13:36 -34.89831 -55.16759 1499 ft 115 kts 253°
2026-05-01 13:37 -34.90143 -55.17612 1490 ft 107 kts 268°
2026-05-01 13:37 -34.90377 -55.18475 1495 ft 107 kts 267°
2026-05-01 13:37 -34.90599 -55.19336 1493 ft 106 kts 267°
2026-05-01 13:37 -34.90814 -55.20199 1494 ft 107 kts 267°
2026-05-01 13:38 -34.91250 -55.21944 1496 ft 108 kts 267°
2026-05-01 13:38 -34.91445 -55.22810 1496 ft 100 kts 281°
2026-05-01 13:38 -34.91336 -55.23585 1499 ft 91 kts 297°
2026-05-01 13:39 -34.91194 -55.24335 1497 ft 91 kts 296°
2026-05-01 13:39 -34.91053 -55.25070 1495 ft 86 kts 302°
2026-05-01 13:39 -34.90838 -55.25727 1494 ft 83 kts 305°
2026-05-01 13:39 -34.90635 -55.26372 1497 ft 80 kts 305°
2026-05-01 13:40 -34.90379 -55.26939 1493 ft 74 kts 317°
2026-05-01 13:40 -34.90059 -55.27407 1492 ft 71 kts 323°
2026-05-01 13:40 -34.89722 -55.27844 1493 ft 71 kts 323°
2026-05-01 13:40 -34.89377 -55.28269 1493 ft 70 kts 327°
2026-05-01 13:41 -34.89010 -55.28657 1492 ft 70 kts 327°
2026-05-01 13:41 -34.88642 -55.29047 1492 ft 70 kts 328°
2026-05-01 13:41 -34.88238 -55.29357 1492 ft 69 kts 334°
2026-05-01 13:41 -34.87829 -55.29659 1493 ft 69 kts 334°
2026-05-01 13:42 -34.87416 -55.29962 1492 ft 70 kts 334°
2026-05-01 13:42 -34.87002 -55.30268 1493 ft 70 kts 334°
2026-05-01 13:42 -34.86586 -55.30574 1494 ft 70 kts 334°
2026-05-01 13:42 -34.86166 -55.30877 1497 ft 71 kts 334°
2026-05-01 13:43 -34.85797 -55.31289 1496 ft 73 kts 322°
2026-05-01 13:43 -34.85443 -55.31741 1500 ft 75 kts 322°
2026-05-01 13:43 -34.85071 -55.32191 1501 ft 76 kts 322°
2026-05-01 13:43 -34.84691 -55.32642 1502 ft 76 kts 322°
2026-05-01 13:44 -34.84312 -55.33094 1502 ft 76 kts 322°
2026-05-01 13:44 -34.83930 -55.33544 1501 ft 77 kts 322°
2026-05-01 13:44 -34.83542 -55.33999 1503 ft 78 kts 322°
2026-05-01 13:44 -34.83149 -55.34463 1506 ft 79 kts 322°
2026-05-01 13:45 -34.82751 -55.34941 1505 ft 81 kts 322°
2026-05-01 13:45 -34.82395 -55.35491 1510 ft 88 kts 304°
2026-05-01 13:45 -34.82199 -55.36215 1510 ft 91 kts 301°
2026-05-01 13:45 -34.81984 -55.36948 1512 ft 93 kts 300°
2026-05-01 13:46 -34.81763 -55.37690 1510 ft 94 kts 301°
2026-05-01 13:46 -34.81540 -55.38441 1510 ft 95 kts 301°
2026-05-01 13:46 -34.81321 -55.39198 1508 ft 95 kts 301°
2026-05-01 13:46 -34.81118 -55.39962 1507 ft 94 kts 301°
2026-05-01 13:47 -34.80923 -55.40720 1507 ft 93 kts 300°
2026-05-01 13:47 -34.80729 -55.41469 1503 ft 92 kts 300°
2026-05-01 13:47 -34.80642 -55.42260 1503 ft 99 kts 280°
2026-05-01 13:47 -34.80708 -55.43088 1500 ft 97 kts 279°
2026-05-01 13:48 -34.80770 -55.43904 1497 ft 97 kts 279°
2026-05-01 13:48 -34.80832 -55.44706 1496 ft 96 kts 279°
2026-05-01 13:48 -34.80886 -55.45514 1496 ft 95 kts 279°
2026-05-01 13:48 -34.80931 -55.46318 1496 ft 95 kts 279°
2026-05-01 13:49 -34.80974 -55.47119 1494 ft 95 kts 279°
2026-05-01 13:49 -34.81024 -55.47928 1494 ft 97 kts 280°
2026-05-01 13:49 -34.81087 -55.48757 1496 ft 99 kts 279°
2026-05-01 13:49 -34.81126 -55.49595 1496 ft 99 kts 282°
2026-05-01 13:50 -34.81102 -55.50420 1501 ft 97 kts 286°
2026-05-01 13:50 -34.81076 -55.51247 1500 ft 98 kts 286°
2026-05-01 13:50 -34.81063 -55.52079 1502 ft 99 kts 285°
2026-05-01 13:50 -34.81042 -55.52909 1499 ft 98 kts 285°
2026-05-01 13:51 -34.81011 -55.53728 1495 ft 96 kts 285°
2026-05-01 13:51 -34.80961 -55.54530 1497 ft 91 kts 295°
2026-05-01 13:51 -34.80825 -55.55284 1499 ft 92 kts 294°
2026-05-01 13:51 -34.80696 -55.56053 1502 ft 93 kts 294°
2026-05-01 13:52 -34.80559 -55.56827 1501 ft 94 kts 295°
2026-05-01 13:52 -34.80419 -55.57601 1499 ft 93 kts 295°
2026-05-01 13:52 -34.80269 -55.58366 1497 ft 93 kts 295°
2026-05-01 13:52 -34.80113 -55.59133 1496 ft 93 kts 295°
2026-05-01 13:53 -34.79952 -55.59900 1499 ft 94 kts 295°
2026-05-01 13:53 -34.79630 -55.61447 1498 ft 95 kts 296°
2026-05-01 13:53 -34.79475 -55.62226 1494 ft 95 kts 295°
2026-05-01 13:54 -34.79308 -55.63003 1495 ft 95 kts 296°
2026-05-01 13:54 -34.79132 -55.63777 1491 ft 95 kts 296°
2026-05-01 13:54 -34.78954 -55.64547 1495 ft 94 kts 296°
2026-05-01 13:54 -34.78781 -55.65313 1493 ft 93 kts 297°
2026-05-01 13:55 -34.78609 -55.66071 1493 ft 93 kts 298°
2026-05-01 13:55 -34.78472 -55.66837 1498 ft 96 kts 290°
2026-05-01 13:55 -34.78402 -55.67641 1490 ft 95 kts 289°
2026-05-01 13:55 -34.78331 -55.68428 1493 ft 93 kts 289°
2026-05-01 13:56 -34.78309 -55.69213 1491 ft 94 kts 282°
2026-05-01 13:56 -34.78350 -55.69965 1486 ft 95 kts 282°
2026-05-01 13:56 -34.78390 -55.70777 1488 ft 97 kts 281°
2026-05-01 13:56 -34.78441 -55.71596 1491 ft 98 kts 276°
2026-05-01 13:57 -34.78546 -55.72414 1489 ft 98 kts 274°
2026-05-01 13:57 -34.78658 -55.73232 1490 ft 99 kts 274°
2026-05-01 13:57 -34.78772 -55.74078 1500 ft 103 kts 274°
2026-05-01 13:57 -34.78888 -55.74949 1499 ft 104 kts 273°
2026-05-01 13:58 -34.79003 -55.75820 1505 ft 105 kts 274°
2026-05-01 13:58 -34.79135 -55.76699 1501 ft 106 kts 273°
2026-05-01 13:58 -34.79269 -55.77582 1500 ft 106 kts 273°
2026-05-01 13:58 -34.79396 -55.78453 1498 ft 103 kts 274°
2026-05-01 13:59 -34.79523 -55.79294 1498 ft 100 kts 274°
2026-05-01 13:59 -34.79653 -55.80123 1497 ft 100 kts 273°
2026-05-01 13:59 -34.79771 -55.80918 1491 ft 99 kts 273°
2026-05-01 13:59 -34.79887 -55.81745 1490 ft 99 kts 273°
2026-05-01 14:00 -34.80082 -55.82567 1495 ft 103 kts 264°
2026-05-01 14:00 -34.80339 -55.83392 1490 ft 105 kts 264°
2026-05-01 14:00 -34.80602 -55.84227 1489 ft 106 kts 263°
2026-05-01 14:00 -34.80866 -55.85067 1493 ft 107 kts 263°
2026-05-01 14:01 -34.81132 -55.85913 1497 ft 109 kts 260°
2026-05-01 14:01 -34.81479 -55.86749 1493 ft 111 kts 256°
2026-05-01 14:01 -34.81827 -55.87591 1492 ft 112 kts 256°
2026-05-01 14:01 -34.82167 -55.88434 1498 ft 113 kts 256°
2026-05-01 14:02 -34.82507 -55.89295 1500 ft 113 kts 257°
2026-05-01 14:02 -34.82852 -55.90151 1495 ft 112 kts 257°
2026-05-01 14:02 -34.83192 -55.90997 1495 ft 111 kts 257°
2026-05-01 14:02 -34.83532 -55.91833 1494 ft 110 kts 257°
2026-05-01 14:03 -34.83898 -55.92658 1493 ft 113 kts 250°
2026-05-01 14:03 -34.84396 -55.93421 1496 ft 116 kts 242°
2026-05-01 14:03 -34.84887 -55.94141 1493 ft 118 kts 243°
2026-05-01 14:03 -34.85415 -55.94919 1495 ft 120 kts 243°
2026-05-01 14:04 -34.85945 -55.95704 1500 ft 119 kts 243°
2026-05-01 14:04 -34.86464 -55.96487 1501 ft 118 kts 243°
2026-05-01 14:04 -34.86975 -55.97270 1496 ft 118 kts 243°
2026-05-01 14:04 -34.87304 -55.97784 1497 ft 115 kts 246°
2026-05-01 14:05 -34.87938 -55.98817 1502 ft 114 kts 246°
2026-05-01 14:05 -34.88418 -55.99599 1503 ft 117 kts 246°
2026-05-01 14:05 -34.88900 -56.00399 1504 ft 117 kts 246°
2026-05-01 14:05 -34.89379 -56.01191 1502 ft 115 kts 249°
2026-05-01 14:06 -34.89830 -56.01985 1501 ft 114 kts 249°
2026-05-01 14:06 -34.90282 -56.02790 1505 ft 116 kts 249°
2026-05-01 14:06 -34.90730 -56.03607 1503 ft 116 kts 249°
2026-05-01 14:06 -34.91151 -56.04425 1504 ft 112 kts 254°
2026-05-01 14:07 -34.91486 -56.05266 1505 ft 109 kts 261°
2026-05-01 14:07 -34.91747 -56.06124 1507 ft 108 kts 263°
2026-05-01 14:07 -34.92012 -56.06981 1508 ft 107 kts 263°
2026-05-01 14:08 -34.92540 -56.08664 1505 ft 106 kts 263°
2026-05-01 14:08 -34.92797 -56.09492 1505 ft 106 kts 263°
2026-05-01 14:08 -34.93055 -56.10329 1506 ft 106 kts 263°
2026-05-01 14:08 -34.93312 -56.11171 1503 ft 107 kts 263°
2026-05-01 14:09 -34.93581 -56.12020 1506 ft 108 kts 263°
2026-05-01 14:09 -34.93863 -56.12877 1509 ft 109 kts 263°
2026-05-01 14:09 -34.94118 -56.13732 1505 ft 106 kts 267°
2026-05-01 14:09 -34.94299 -56.14580 1502 ft 101 kts 273°
2026-05-01 14:10 -34.94451 -56.15410 1503 ft 99 kts 272°
2026-05-01 14:10 -34.94597 -56.16224 1496 ft 98 kts 272°
2026-05-01 14:10 -34.94731 -56.17028 1501 ft 96 kts 272°
2026-05-01 14:10 -34.94830 -56.17803 1499 ft 90 kts 282°
2026-05-01 14:11 -34.94722 -56.18517 1495 ft 85 kts 293°
2026-05-01 14:11 -34.94466 -56.19969 1507 ft 90 kts 293°
2026-05-01 14:11 -34.94329 -56.20722 1507 ft 92 kts 293°
2026-05-01 14:12 -34.94195 -56.21499 1511 ft 95 kts 293°
2026-05-01 14:12 -34.93997 -56.22244 1514 ft 92 kts 303°
2026-05-01 14:12 -34.93735 -56.22952 1516 ft 92 kts 304°
2026-05-01 14:12 -34.93475 -56.23663 1514 ft 91 kts 304°
2026-05-01 14:13 -34.93220 -56.24365 1511 ft 90 kts 304°
2026-05-01 14:13 -34.93051 -56.24818 1509 ft 88 kts 304°
2026-05-01 14:13 -34.92713 -56.25707 1505 ft 85 kts 304°
2026-05-01 14:13 -34.92467 -56.26358 1505 ft 84 kts 304°
2026-05-01 14:14 -34.92224 -56.27005 1498 ft 84 kts 304°
2026-05-01 14:14 -34.92001 -56.27664 1489 ft 84 kts 302°
2026-05-01 14:14 -34.91789 -56.28325 1499 ft 84 kts 301°
2026-05-01 14:14 -34.91599 -56.29004 1502 ft 85 kts 300°
2026-05-01 14:15 -34.91401 -56.29696 1507 ft 88 kts 300°
2026-05-01 14:15 -34.91191 -56.30402 1511 ft 90 kts 300°
2026-05-01 14:15 -34.90976 -56.31120 1511 ft 91 kts 300°
2026-05-01 14:15 -34.90761 -56.31851 1516 ft 93 kts 300°
2026-05-01 14:16 -34.90544 -56.32592 1515 ft 93 kts 300°
2026-05-01 14:16 -34.90299 -56.33308 1512 ft 90 kts 306°
2026-05-01 14:16 -34.89972 -56.33937 1511 ft 87 kts 314°
2026-05-01 14:16 -34.89613 -56.34525 1511 ft 86 kts 314°
2026-05-01 14:17 -34.89255 -56.35114 1509 ft 87 kts 314°
2026-05-01 14:17 -34.89017 -56.35505 1508 ft 87 kts 314°
2026-05-01 14:17 -34.88733 -56.35973 1509 ft 87 kts 314°
2026-05-01 14:17 -34.88357 -56.36546 1505 ft 86 kts 318°
2026-05-01 14:18 -34.87966 -56.37105 1507 ft 87 kts 318°
2026-05-01 14:18 -34.87585 -56.37660 1505 ft 87 kts 318°
2026-05-01 14:18 -34.87200 -56.38222 1503 ft 86 kts 318°
2026-05-01 14:18 -34.86940 -56.38601 1507 ft 86 kts 318°
2026-05-01 14:19 -34.86427 -56.39339 1506 ft 87 kts 318°
2026-05-01 14:19 -34.86033 -56.39899 1509 ft 87 kts 318°
2026-05-01 14:19 -34.85634 -56.40463 1507 ft 88 kts 318°
2026-05-01 14:19 -34.85230 -56.41028 1509 ft 88 kts 318°
2026-05-01 14:20 -34.84825 -56.41586 1495 ft 87 kts 320°
2026-05-01 14:20 -34.83785 -56.42206 1503 ft 83 kts 342°
2026-05-01 14:20 -34.83223 -56.42439 1517 ft 88 kts 342°
2026-05-01 14:21 -34.82619 -56.42684 1514 ft 94 kts 342°
2026-05-01 14:21 -34.82008 -56.42936 1499 ft 90 kts 342°
2026-05-01 14:21 -34.81430 -56.43173 1499 ft 86 kts 342°
2026-05-01 14:22 -34.80308 -56.43358 1495 ft 86 kts 17°
2026-05-01 14:22 -34.79829 -56.42886 1494 ft 94 kts 40°
2026-05-01 14:22 -34.79615 -56.42412 1499 ft 100 kts 56°
2026-05-01 14:22 -34.79507 -56.41233 1503 ft 108 kts 74°
2026-05-01 14:23 -34.79485 -56.40631 1504 ft 107 kts 73°
2026-05-01 14:23 -34.79446 -56.39719 1496 ft 108 kts 73°
2026-05-01 14:23 -34.79408 -56.38799 1503 ft 109 kts 73°
2026-05-01 14:23 -34.79376 -56.37877 1504 ft 109 kts 73°
2026-05-01 14:24 -34.79343 -56.36949 1503 ft 110 kts 73°
2026-05-01 14:24 -34.79307 -56.36034 1500 ft 107 kts 73°
2026-05-01 14:24 -34.79274 -56.35129 1505 ft 108 kts 73°
2026-05-01 14:24 -34.79242 -56.34203 1499 ft 110 kts 73°
2026-05-01 14:25 -34.79215 -56.33288 1503 ft 107 kts 74°
2026-05-01 14:25 -34.79185 -56.32384 1500 ft 107 kts 73°
2026-05-01 14:25 -34.79148 -56.31482 1504 ft 107 kts 71°
2026-05-01 14:25 -34.79100 -56.30564 1508 ft 111 kts 72°
2026-05-01 14:26 -34.79040 -56.29632 1508 ft 110 kts 71°
2026-05-01 14:26 -34.78904 -56.27761 1505 ft 112 kts 71°
2026-05-01 14:26 -34.78839 -56.26822 1495 ft 109 kts 71°
2026-05-01 14:27 -34.78783 -56.25912 1492 ft 106 kts 71°
2026-05-01 14:27 -34.78744 -56.25032 1493 ft 104 kts 79°
2026-05-01 14:27 -34.79088 -56.24251 1488 ft 110 kts 134°
2026-05-01 14:28 -34.80441 -56.23402 1499 ft 115 kts 160°
2026-05-01 14:28 -34.81208 -56.23074 1501 ft 116 kts 161°
2026-05-01 14:28 -34.81976 -56.22742 1378 ft 117 kts 160°
2026-05-01 14:28 -34.82732 -56.22805 1246 ft 107 kts 218°
2026-05-01 14:29 -34.83274 -56.23373 1118 ft 99 kts 246°
2026-05-01 14:29 -34.83628 -56.24068 1004 ft 91 kts 264°
2026-05-01 14:30 -34.83308 -56.25988 910 ft 66 kts 325°
2026-05-01 14:30 -34.82924 -56.26231 916 ft 63 kts 352°
2026-05-01 14:30 -34.82478 -56.26280 885 ft 63 kts
2026-05-01 14:31 -34.81654 -56.26308 671 ft 57 kts 353°
2026-05-01 14:31 -34.81238 -56.26352 577 ft 62 kts 360°
2026-05-01 14:31 -34.80807 -56.26373 498 ft 62 kts 358°
2026-05-01 14:31 -34.80385 -56.26408 429 ft 59 kts 360°
2026-05-01 14:32 -34.79984 -56.26429 344 ft 57 kts 360°
2026-05-01 14:32 -34.79582 -56.26455 224 ft 56 kts
2026-05-01 14:32 -34.79230 -56.26478 192 ft 40 kts
2026-05-01 14:32 -34.79043 -56.26484 192 ft 23 kts 359°
2026-05-01 14:33 -34.78924 -56.26477 182 ft 8 kts 42°
2026-05-01 14:33 -34.78897 -56.26400 180 ft 12 kts 70°
2026-05-01 14:33 -34.78873 -56.26306 180 ft 9 kts 70°
2026-05-01 14:33 -34.78830 -56.26276 180 ft 6 kts 19°
2026-05-01 14:34 -34.78818 -56.26258 180 ft 0 kts 98°
2026-05-01 14:34 -34.78819 -56.26256 180 ft 1 kts 118°
2026-05-01 14:34 -34.78820 -56.26254 180 ft 0 kts 134°
2026-05-01 14:34 -34.78828 -56.26258 180 ft 0 kts 260°
2026-05-01 14:36 -34.78828 -56.26257 180 ft 0 kts 266°
2026-05-01 14:42 -34.78828 -56.26256 180 ft 0 kts 266°